| time (UTC) | temp C | wind direction | speed KPH | gust KPH | rain 1hr cm | rain 24hr cm | rain mn cm | humidity % | barometer mb |
| 20260506034727 | 5 | 281 | 17.7 | 22.5 | 0.00 | 0.00 | 0.00 | 83 | 1012.1 |
| 20260506032725 | 5 | 277 | 17.7 | 20.9 | 0.00 | 0.00 | 0.00 | 86 | 1011.9 |
| 20260506030726 | 5 | 279 | 17.7 | 20.9 | 0.00 | 0.00 | 0.00 | 83 | 1011.7 |
| 20260506024726 | 5 | 269 | 17.7 | 20.9 | 0.00 | 0.00 | 0.00 | 85 | 1011.6 |
| 20260506022725 | 4 | 277 | 16.1 | 19.3 | 0.00 | 0.00 | 0.00 | 87 | 1011.5 |
| 20260506020725 | 4 | 280 | 12.9 | 16.1 | 0.00 | 0.00 | 0.00 | 89 | 1011.4 |
| 20260506014725 | 5 | 268 | 16.1 | 17.7 | 0.00 | 0.00 | 0.00 | 85 | 1011.2 |
| 20260506012725 | 5 | 269 | 17.7 | 19.3 | 0.00 | 0.00 | 0.00 | 86 | 1011.0 |
| 20260506010726 | 5 | 264 | 17.7 | 20.9 | 0.00 | 0.00 | 0.00 | 83 | 1010.7 |
| 20260506004725 | 5 | 269 | 17.7 | 19.3 | 0.00 | 0.00 | 0.00 | 85 | 1010.5 |
| 20260506002725 | 5 | 269 | 14.5 | 16.1 | 0.00 | 0.00 | 0.00 | 87 | 1010.4 |
| 20260506000725 | 5 | 279 | 14.5 | 17.7 | 0.00 | 0.00 | 0.00 | 85 | 1010.3 |
| 20260505234725 | 4 | 290 | 16.1 | 20.9 | 0.00 | 0.00 | 0.00 | 82 | 1010.2 |
| 20260505232725 | 4 | 286 | 14.5 | 16.1 | 0.00 | 0.00 | 0.00 | 85 | 1010.2 |
| 20260505230725 | 4 | 282 | 12.9 | 17.7 | 0.00 | 0.00 | 0.00 | 86 | 1010.0 |
| 20260505224725 | 5 | 275 | 14.5 | 17.7 | 0.00 | 0.00 | 0.00 | 88 | 1010.0 |
| 20260505222725 | 5 | 265 | 17.7 | 19.3 | 0.00 | 0.00 | 0.00 | 90 | 1010.0 |
| 20260505220725 | 5 | 265 | 14.5 | 17.7 | 0.00 | 0.00 | 0.00 | 91 | 1009.9 |
| 20260505214725 | 5 | 273 | 14.5 | 17.7 | 0.00 | 0.00 | 0.00 | 90 | 1009.9 |
| 20260505212725 | 5 | 276 | 14.5 | 17.7 | 0.00 | 0.00 | 0.00 | 87 | 1009.8 |
| 20260505210724 | 5 | 277 | 14.5 | 19.3 | 0.00 | 0.00 | 0.00 | 88 | 1009.7 |
| 20260505204724 | 5 | 253 | 14.5 | 17.7 | 0.00 | 0.00 | 0.00 | 91 | 1009.5 |
| 20260505202725 | 5 | 245 | 14.5 | 17.7 | 0.00 | 0.00 | 0.00 | 91 | 1009.3 |
| 20260505200724 | 5 | 242 | 19.3 | 22.5 | 0.00 | 0.00 | 0.00 | 91 | 1009.2 |
| 20260505194723 | 5 | 253 | 19.3 | 22.5 | 0.00 | 0.00 | 0.00 | 91 | 1009.2 |
| 20260505192724 | 5 | 248 | 19.3 | 22.5 | 0.00 | 0.00 | 0.00 | 91 | 1009.3 |
| 20260505190724 | 5 | 246 | 17.7 | 20.9 | 0.00 | 0.00 | 0.00 | 91 | 1009.2 |
| 20260505184724 | 5 | 244 | 20.9 | 24.1 | 0.00 | 0.00 | 0.00 | 90 | 1009.0 |
| 20260505182723 | 5 | 245 | 20.9 | 24.1 | 0.00 | 0.00 | 0.00 | 89 | 1008.8 |
| 20260505180724 | 5 | 240 | 20.9 | 25.7 | 0.00 | 0.00 | 0.00 | 87 | 1008.7 |
| 20260505174724 | 5 | 240 | 24.1 | 29.0 | 0.00 | 0.00 | 0.00 | 86 | 1008.5 |
| 20260505172723 | 6 | 242 | 22.5 | 27.4 | 0.00 | 0.00 | 0.00 | 84 | 1008.4 |
| 20260505170723 | 6 | 245 | 20.9 | 24.1 | 0.00 | 0.00 | 0.00 | 82 | 1008.5 |
| 20260505164723 | 6 | 251 | 19.3 | 22.5 | 0.00 | 0.00 | 0.00 | 77 | 1008.5 |
| 20260505162723 | 6 | 252 | 17.7 | 20.9 | 0.00 | 0.00 | 0.00 | 77 | 1008.6 |
| 20260505160723 | 6 | 250 | 17.7 | 20.9 | 0.00 | 0.00 | 0.00 | 76 | 1008.5 |
| 20260505152723 | 7 | 303 | 8.0 | 11.3 | 0.00 | 0.00 | 0.00 | 63 | 1008.4 |
| 20260505150723 | 7 | 279 | 8.0 | 12.9 | 0.00 | 0.00 | 0.00 | 70 | 1008.5 |
| 20260505124722 | 7 | 247 | 14.5 | 17.7 | 0.00 | 0.00 | 0.00 | 67 | 1007.6 |
| 20260505122722 | 7 | 248 | 14.5 | 17.7 | 0.00 | 0.00 | 0.00 | 72 | 1007.4 |
| 20260505120722 | 7 | 251 | 14.5 | 17.7 | 0.00 | 0.00 | 0.00 | 75 | 1007.3 |
| 20260505114722 | 7 | 265 | 14.5 | 19.3 | 0.00 | 0.00 | 0.00 | 72 | 1007.2 |
| 20260505112722 | 7 | 269 | 19.3 | 24.1 | 0.00 | 0.00 | 0.00 | 75 | 1007.1 |
| 20260505110722 | 7 | 274 | 20.9 | 25.7 | 0.00 | 0.00 | 0.00 | 74 | 1007.0 |
| 20260505100722 | 7 | 285 | 25.7 | 30.6 | 0.00 | 0.00 | 0.00 | 71 | 1006.5 |
| 20260505094721 | 6 | 271 | 25.7 | 30.6 | 0.00 | 0.05 | 0.00 | 79 | 1006.4 |
| 20260505092721 | 6 | 270 | 22.5 | 27.4 | 0.00 | 0.05 | 0.00 | 82 | 1006.2 |
| 20260505090722 | 6 | 282 | 19.3 | 25.7 | 0.00 | 0.05 | 0.00 | 84 | 1005.9 |
| 20260505084723 | 7 | 307 | 14.5 | 20.9 | 0.00 | 0.10 | 0.00 | 74 | 1005.7 |
| 20260505082722 | 7 | 327 | 16.1 | 24.1 | 0.00 | 0.10 | 0.00 | 74 | 1005.5 |
| 20260505080722 | 7 | 322 | 17.7 | 24.1 | 0.00 | 0.10 | 0.00 | 76 | 1005.3 |
| 20260505074721 | 7 | 290 | 17.7 | 22.5 | 0.00 | 0.20 | 0.00 | 74 | 1005.1 |
| 20260505072721 | 7 | 306 | 14.5 | 20.9 | 0.00 | 0.20 | 0.00 | 74 | 1004.7 |
| 20260505070721 | 6 | 307 | 19.3 | 27.4 | 0.00 | 0.20 | 0.00 | 77 | 1004.4 |
| 20260505064721 | 6 | 306 | 20.9 | 29.0 | 0.00 | 0.38 | 0.00 | 78 | 1004.0 |
| 20260505062721 | 6 | 306 | 16.1 | 20.9 | 0.00 | 0.38 | 0.00 | 76 | 1003.5 |
| 20260505060721 | 6 | 313 | 16.1 | 24.1 | 0.00 | 0.38 | 0.00 | 81 | 1003.3 |
| 20260505054721 | 6 | 305 | 20.9 | 27.4 | 0.00 | 0.38 | 0.00 | 82 | 1003.0 |
| 20260505052721 | 6 | 304 | 25.7 | 33.8 | 0.00 | 0.38 | 0.00 | 84 | 1002.8 |
| 20260505050720 | 6 | 284 | 37.0 | 46.7 | 0.00 | 0.38 | 0.00 | 83 | 1002.4 |
| 20260505040720 | 6 | 251 | 41.8 | 48.3 | 0.00 | 0.38 | 0.00 | 78 | 1001.4 |